Location: Ferchesar
(52.6477°N, 12.4298°E)
Time: 17:13:19
(UTC+01:00)

Vanguard 3 - Pass Details

Date: 15 December 2021
Orbit: 508 x 3260 km, 33.3° (Epoch: 22 January)

Event Time Altitude Azimuth Distance (km) Brightness Sun altitude
Rises 00:23:04 0° 216° (SW) 5,587 - -60.4°
Reaches altitude 10° 00:26:59 10° 206° (SSW) 4,953 - -60.3°
Maximum altitude 00:39:20 31° 152° (SSE) 4,331 - -59.9°
Exits shadow 00:49:17 20° 113° (ESE) 5,353 11.1 -59.4°
Drops below altitude 10° 00:54:43 10° 101° (ESE) 6,201 11.6 -59.1°
Sets 01:00:22 0° 93° (E) 7,167 12.1 -58.8°
